Flag for U.S.A. Weather past 2 weeks in Modesto, California, U.S.A.

Now
60 °F

Sunny.


Feels Like: 60 °F
Forecast: 52 / 78 °F
Wind: 15 mph from Northwest

Location: Modesto City-County-Sham Field

Current Time: Mar 28, 2015 at 10:06:05 AM

Latest Report: Mar 28, 2015 at 8:53 AM


Visibility: 10 mi

Pressure: 30.13 "Hg

Humidity: 67%

Dew point: 49 °F

Location of ModestoLocation

Historic Weather in Modesto — Graph

°F

Modesto temperature yesterday

Maximum temperature yesterday: 86 °F (at 2:53 PM)
Minimum temperature yesterday: 56 °F (at 5:53 AM)
Average temperature yesterday: 70 °F

Past Weeks' High & Low Weather Summary

 TemperatureHumidityPressure
High86 °F (Mar 27, 2:53 PM)93% (Mar 20, 7:53 AM)30.29 "Hg (Mar 20, 7:53 AM)
Low47 °F (Mar 19, 6:53 AM)22% (Mar 26, 5:53 PM)29.96 "Hg (Mar 18, 5:53 PM)
Average65 °F56%30.09 "Hg
* Reported Mar 13 8:53 AM — Mar 28 8:53 AM, Modesto, Weather by CustomWeather, © 2015

Note: Actual official high and low records may vary slightly from our data, if they occured in-between our weather recording intervals... More about our weather records

Advertising

Modesto weather history for previous 24 hours

 ConditionsComfort  
Time TempWeatherWind HumidityBarometerVisibility
8:53 AM
Sat, Mar 28
60 °FSunny.15 mph67%30.13 "Hg10 mi
7:53 AM57 °FClear.10 mph72%30.13 "Hg10 mi
6:53 AM54 °FClear.8 mph80%30.12 "Hg10 mi
5:53 AM55 °FClear.7 mph77%30.10 "Hg10 mi
4:53 AM57 °FClear.N/A72%30.10 "Hg10 mi
3:53 AM57 °FClear.7 mph72%30.09 "Hg10 mi
2:53 AM58 °FClear.7 mph70%30.10 "Hg10 mi
1:53 AM59 °FClear.8 mph67%30.11 "Hg10 mi
12:53 AM61 °FClear.10 mph60%30.11 "Hg10 mi
11:53 PM
Fri, Mar 27
63 °FClear.9 mph58%30.10 "Hg10 mi
10:53 PM66 °FClear.6 mph54%30.10 "Hg10 mi
9:53 PM68 °FClear.9 mph47%30.09 "Hg10 mi
8:53 PM71 °FClear.9 mph42%30.07 "Hg10 mi
7:53 PM73 °FSunny.10 mph36%30.05 "Hg10 mi
6:53 PM77 °FSunny.18 mph35%30.04 "Hg10 mi
5:53 PM84 °FSunny.15 mph29%30.03 "Hg10 mi
4:53 PM85 °FSunny.15 mph29%30.02 "Hg10 mi
3:53 PM86 °FSunny.8 mph28%30.03 "Hg10 mi
2:53 PM86 °FSunny.8 mph29%30.04 "Hg10 mi
1:53 PM84 °FSunny.8 mph32%30.07 "Hg10 mi
12:53 PM80 °FSunny.6 mph36%30.09 "Hg10 mi
11:53 AM79 °FSunny.7 mph41%30.11 "Hg10 mi
10:53 AM75 °FSunny.6 mph47%30.11 "Hg10 mi
Weather by CustomWeather, © 2015

See weather overviewHow to use our weather pages